Overview Statistics Trail Chart Weather Telemetry Raw packets
 

This is the latest recevied weather packets stored in our database for station/object WA6ODQ-13. If no packets are shown the sender has not sent any weather packets the latest 10 day(s).

<< 30 31 32 33 34 35 36 >>
Time Temp. Humidity Pressure Rain* Wind** Luminosity Snow
1788461565 20.56° C 73% 1012.8 hPa 0 mm - 253 W/m² -
1788461262 20.56° C 74% 1012.7 hPa 0 mm - 186 W/m² -
1788460958 20.56° C 74% 1012.4 hPa 0 mm - 161 W/m² -
1788460652 20.56° C 73% 1012.6 hPa 0 mm - 135 W/m² -
1788460347 20.56° C 73% 1012.8 hPa 0 mm - 114 W/m² -
1788460046 20.56° C 74% 1012.7 hPa 0 mm - 154 W/m² -
1788459741 20° C 75% 1012.7 hPa 0 mm - 144 W/m² -
1788459440 20° C 75% 1012.7 hPa 0 mm - 147 W/m² -
1788459135 20° C 75% 1012.8 hPa 0 mm - 127 W/m² -
1788458830 20° C 76% 1012.8 hPa 0 mm - 129 W/m² -
1788458524 20° C 76% 1012.7 hPa 0 mm - 132 W/m² -
1788458223 19.44° C 77% 1012.8 hPa 0 mm - 132 W/m² -
1788457923 19.44° C 77% 1012.7 hPa 0 mm - 105 W/m² -
1788457617 19.44° C 77% 1012.7 hPa 0 mm - 124 W/m² -
1788457312 19.44° C 77% 1012.4 hPa 0 mm - 156 W/m² -
1788457012 19.44° C 78% 1012.7 hPa 0 mm - 139 W/m² -
1788456708 18.89° C 79% 1012.8 hPa 0 mm - 125 W/m² -
1788456407 19.44° C 78% 1012.7 hPa 0 mm - 106 W/m² -
1788456099 18.89° C 78% 1012.9 hPa 0 mm - 144 W/m² -
1788455798 18.89° C 79% 1012.8 hPa 0 mm - 121 W/m² -
1788455495 18.89° C 79% 1012.7 hPa 0 mm - 138 W/m² -
1788455193 18.89° C 79% 1012.8 hPa 0 mm - 108 W/m² -
1788454889 18.89° C 80% 1013 hPa 0 mm - 121 W/m² -
1788454587 18.33° C 80% 1012.9 hPa 0 mm - 121 W/m² -
1788454282 18.33° C 81% 1012.9 hPa 0 mm - 94 W/m² -

* Rain latest hour (hover to see other rain measurements)
** Current wind speed in m/s (hover to see current wind gust speed)